Location: Bijele Vode
(45.2833°N, 16.2000°E)
Time: 13:08:58
(UTC+00:00)

MetOp-B - Pass Details

Date: 18 September 2020
Orbit: 819 x 821 km, 98.7° (Epoch: 31 October)

Event Time Altitude Azimuth Distance (km) Brightness Sun altitude
Exits shadow 19:41:01 73° 34° (NE) 861 4.1 -27.5°
Drops below altitude 10° 19:46:02 10° 349° (NNW) 2,427 7.1 -28.2°
Sets 19:48:24 0° 348° (NNW) 3,363 8.0 -28.6°
